EW3770 Weather Reports


Display with metric or nautical units.
time (UTC)temp
F
wind
direction
speed
MPH
gust
MPH
rain 1hr
in
rain 24hr
in
rain mn
in
humidity
%
barometer
mb
20260506170003 55 360 8.0 16.0 0.00 0.11 0.11 27 1027.4
20260506165403 55 360 8.0 17.0 0.00 0.11 0.11 30 1027.4
20260506164503 55 360 9.0 21.0 0.00 0.11 0.11 29 1027.4
20260506163603 54 360 9.0 17.0 0.00 0.11 0.11 29 1027.4
20260506162724 54 360 8.0 17.0 0.00 0.11 0.11 31 1027.4
20260506161803 54 360 10.0 20.0 0.00 0.11 0.11 33 1027.4
20260506160903 54 343 10.0 19.0 0.00 0.11 0.11 35 1027.4
20260506160003 54 324 9.0 19.0 0.00 0.11 0.11 36 1027.4
20260506155424 53 346 9.0 20.0 0.00 0.11 0.11 37 1027.4
20260506154503 53 359 9.0 19.0 0.00 0.11 0.11 36 1027.4
20260506153603 52 337 9.0 16.0 0.00 0.11 0.11 37 1027.4
20260506152703 52 327 9.0 16.0 0.00 0.11 0.11 39 1027.4
20260506151803 52 332 9.0 18.0 0.00 0.11 0.11 36 1027.4
20260506150903 53 342 8.0 16.0 0.00 0.11 0.11 41 1027.4
20260506150003 53 351 6.0 14.0 0.00 0.11 0.11 44 1027.4
20260506145403 53 350 6.0 13.0 0.00 0.11 0.11 44 1027.4
20260506144503 52 350 5.0 12.0 0.00 0.11 0.11 46 1027.4
20260506143603 52 346 3.0 8.0 0.00 0.11 0.11 48 1027.4
20260506142703 52 334 3.0 9.0 0.00 0.11 0.11 48 1027.4
20260506141803 51 343 3.0 9.0 0.00 0.11 0.11 49 1027.4
20260506140903 50 334 3.0 9.0 0.00 0.11 0.11 49 1027.4
20260506140003 50 340 3.0 8.0 0.00 0.11 0.11 51 1027.4
20260506135403 50 326 3.0 9.0 0.00 0.11 0.11 54 1027.4
20260506134503 50 321 3.0 7.0 0.00 0.11 0.11 56 1027.4
20260506133603 49 332 2.0 7.0 0.00 0.11 0.11 60 1027.4
20260506132703 48 310 1.0 5.0 0.00 0.11 0.11 64 1027.4
20260506131803 47 336 0.0 4.0 0.00 0.11 0.11 67 1027.4
20260506130903 46 360 0.0 2.0 0.00 0.11 0.11 70 1027.4
20260506130024 45 360 0.0 4.0 0.00 0.11 0.11 70 1027.4
20260506125403 44 360 1.0 4.0 0.00 0.11 0.11 71 1027.4
20260506124504 44 360 0.0 4.0 0.00 0.11 0.11 70 1027.4
20260506123603 44 360 1.0 4.0 0.00 0.11 0.11 70 1027.4
20260506122703 44 360 0.0 4.0 0.00 0.11 0.11 71 1027.4
20260506121803 43 360 1.0 5.0 0.00 0.11 0.11 71 1027.4
20260506120903 43 360 2.0 5.0 0.00 0.11 0.11 71 1027.4
20260506120003 43 360 1.0 5.0 0.00 0.11 0.11 73 1027.4
20260506115403 43 360 0.0 5.0 0.00 0.11 0.11 72 1027.4
20260506114524 43 360 1.0 8.0 0.00 0.11 0.11 73 1027.4
20260506113603 43 360 1.0 5.0 0.00 0.11 0.11 74 1027.4
20260506112703 43 360 1.0 5.0 0.00 0.11 0.11 74 1027.4
20260506111824 43 360 3.0 9.0 0.01 0.11 0.11 74 1027.4
20260506110903 43 360 3.0 9.0 0.01 0.11 0.11 73 1027.4
20260506110003 43 360 4.0 9.0 0.01 0.11 0.11 73 1027.4
20260506105403 43 360 4.0 12.0 0.01 0.11 0.11 74 1027.4
20260506104504 43 360 4.0 13.0 0.01 0.11 0.11 76 1027.4
20260506103603 43 360 5.0 12.0 0.01 0.11 0.11 77 1027.4
20260506102703 43 360 5.0 13.0 0.01 0.11 0.11 78 1027.4
20260506101824 43 360 4.0 13.0 0.00 0.10 0.10 80 1027.4
20260506100903 43 360 3.0 11.0 0.00 0.10 0.10 83 1027.4
20260506100004 43 360 2.0 8.0 0.01 0.10 0.10 83 1027.4
20260506095403 44 360 1.0 6.0 0.01 0.10 0.10 84 1027.4
20260506094524 44 360 2.0 8.0 0.04 0.10 0.10 85 1027.4
20260506093603 44 360 3.0 8.0 0.08 0.10 0.10 86 1027.4
20260506092703 44 360 3.0 9.0 0.10 0.10 0.10 86 1027.4
20260506091803 44 360 1.0 5.0 0.10 0.10 0.10 85 1027.4
20260506090903 44 1 3.0 10.0 0.10 0.10 0.10 84 1027.4
20260506090003 44 7 5.0 14.0 0.09 0.09 0.09 82 1027.4
20260506085403 44 15 7.0 16.0 0.09 0.09 0.09 81 1027.4
20260506084525 46 360 8.0 18.0 0.06 0.06 0.06 75 1027.4
20260506083603 50 359 7.0 21.0 0.02 0.02 0.02 67 1027.4
20260506082724 53 360 2.0 6.0 0.00 0.00 0.00 71 1027.4
20260506081824 54 360 0.0 1.0 0.00 0.00 0.00 69 1027.4
20260506080903 54 0 0.0 0.0 0.00 0.00 0.00 69 1027.4
20260506072703 54 0 0.0 0.0 0.00 0.00 0.00 67 1027.4
20260506071803 54 360 0.0 3.0 0.00 0.00 0.00 66 1027.4
20260506070903 55 360 1.0 5.0 0.00 0.00 0.00 64 1027.4
20260506061824 56 360 1.0 3.0 0.00 0.00 0.00 56 1027.4
20260506060903 56 360 0.0 4.0 0.00 0.00 0.00 57 1027.4
20260506050924 55 360 2.0 8.0 0.00 0.00 0.00 58 1027.4
20260506044503 55 360 0.0 2.0 0.00 0.00 0.00 58 1027.4
20260506043603 55 360 0.0 2.0 0.00 0.00 0.00 57 1027.4
20260506042703 55 0 0.0 0.0 0.00 0.00 0.00 58 1027.4
20260506041803 55 360 0.0 1.0 0.00 0.00 0.00 58 1027.4
20260506040903 55 360 0.0 1.0 0.00 0.00 0.00 58 1027.4
20260506040004 55 360 0.0 1.0 0.00 0.00 0.00 58 1027.4
20260506035403 55 0 0.0 0.0 0.00 0.00 0.00 58 1027.4
20260506034503 55 0 0.0 0.0 0.00 0.00 0.00 58 1027.4
20260506033603 55 360 0.0 2.0 0.00 0.00 0.00 58 1027.4
20260506032703 55 360 0.0 3.0 0.00 0.00 0.00 57 1027.4
20260506031803 55 360 0.0 2.0 0.00 0.00 0.00 57 1027.4
20260506030903 55 360 0.0 2.0 0.00 0.00 0.00 56 1027.4
20260506030003 56 360 0.0 2.0 0.00 0.00 0.00 54 1027.4
20260506025403 56 360 0.0 2.0 0.00 0.00 0.00 53 1027.4
20260506024503 56 360 1.0 3.0 0.00 0.00 0.00 52 1027.4
20260506023603 57 360 1.0 5.0 0.00 0.00 0.00 51 1027.4
20260506022703 58 360 1.0 6.0 0.00 0.00 0.00 50 1027.4
20260506021803 58 360 1.0 4.0 0.00 0.00 0.00 49 1027.4
20260506020903 59 360 1.0 5.0 0.00 0.00 0.00 48 1027.4
20260506020003 60 360 1.0 10.0 0.00 0.00 0.00 47 1027.4
20260506015403 60 360 1.0 2.0 0.00 0.00 0.00 46 1027.4
20260506014503 60 360 1.0 5.0 0.00 0.00 0.00 45 1027.4
20260506013624 61 360 0.0 3.0 0.00 0.00 0.00 46 1027.4
20260506012703 61 2 0.0 3.0 0.00 0.00 0.00 45 1027.4
20260506011824 62 130 1.0 5.0 0.00 0.00 0.00 46 1027.4
20260506010903 62 138 0.0 7.0 0.00 0.00 0.00 45 1027.4
20260506010003 62 121 0.0 3.0 0.00 0.00 0.00 45 1027.4
20260506005424 62 128 0.0 3.0 0.00 0.00 0.00 47 1027.4
20260506004504 62 127 1.0 9.0 0.00 0.00 0.00 43 1027.4
20260506003603 62 160 0.0 5.0 0.00 0.00 0.00 44 1027.4
20260506002703 62 160 0.0 2.0 0.00 0.00 0.00 44 1027.4
20260506001824 62 177 1.0 5.0 0.00 0.00 0.00 45 1027.4
20260506000903 62 188 1.0 4.0 0.00 0.00 0.00 46 1027.4
20260506000003 63 357 0.0 3.0 0.00 0.00 0.00 44 1027.4
20260505235403 63 199 0.0 3.0 0.00 0.00 0.00 44 1027.4
20260505234524 63 222 1.0 6.0 0.00 0.00 0.00 45 1027.4
20260505233603 63 358 0.0 3.0 0.00 0.00 0.00 47 1027.4
20260505232703 62 360 1.0 6.0 0.00 0.00 0.00 48 1027.4
20260505231803 61 276 1.0 5.0 0.00 0.00 0.00 49 1027.4
20260505230903 60 208 1.0 6.0 0.00 0.00 0.00 51 1027.4
20260505230003 60 360 0.0 2.0 0.00 0.00 0.00 54 1027.4
20260505225403 60 360 1.0 5.0 0.00 0.00 0.00 55 1027.4
20260505224503 58 7 1.0 8.0 0.00 0.00 0.00 60 1027.4
20260505223603 57 136 0.0 1.0 0.00 0.00 0.00 59 1027.4
20260505222703 57 139 1.0 7.0 0.00 0.00 0.00 52 1027.4
20260505221803 58 129 1.0 5.0 0.00 0.00 0.00 55 1027.4
20260505220903 58 125 1.0 7.0 0.00 0.00 0.00 53 1027.4
20260505220003 60 139 0.0 4.0 0.00 0.00 0.00 51 1027.4
20260505215403 60 140 0.0 4.0 0.00 0.00 0.00 48 1027.4
20260505214503 60 141 0.0 1.0 0.00 0.00 0.00 47 1027.4
20260505213624 59 140 0.0 2.0 0.00 0.00 0.00 48 1027.4
20260505212703 59 140 0.0 2.0 0.00 0.00 0.00 49 1027.4
20260505211803 59 142 1.0 4.0 0.00 0.00 0.00 49 1027.4
20260505210903 58 142 0.0 3.0 0.00 0.00 0.00 52 1027.4
20260505210003 58 144 0.0 4.0 0.00 0.00 0.00 53 1027.4
20260505205424 58 137 1.0 4.0 0.00 0.00 0.00 53 1027.4
20260505204503 58 155 1.0 5.0 0.00 0.00 0.00 51 1027.4
20260505203603 58 161 1.0 5.0 0.00 0.00 0.00 51 1027.4
20260505202703 58 169 1.0 4.0 0.00 0.00 0.00 52 1027.4
20260505201803 57 139 1.0 6.0 0.00 0.00 0.00 52 1027.4
20260505200924 57 121 1.0 7.0 0.00 0.00 0.00 53 1027.4
20260505200003 57 113 2.0 10.0 0.00 0.00 0.00 50 1027.4
20260505195403 57 141 1.0 6.0 0.00 0.00 0.00 51 1027.4
20260505194503 56 143 2.0 11.0 0.00 0.00 0.00 51 1027.4
20260505193603 57 161 2.0 11.0 0.00 0.00 0.00 50 1027.4
20260505192703 57 152 1.0 6.0 0.00 0.00 0.00 53 1027.4
20260505191803 56 155 3.0 8.0 0.00 0.00 0.00 53 1027.4
20260505190903 56 158 3.0 12.0 0.00 0.00 0.00 52 1027.4
20260505190003 57 161 2.0 7.0 0.00 0.00 0.00 51 1027.4
20260505185403 58 161 2.0 9.0 0.00 0.00 0.00 51 1027.4
20260505184503 58 2 3.0 9.0 0.00 0.00 0.00 51 1027.4
20260505183603 58 360 2.0 8.0 0.00 0.00 0.00 53 1027.4
20260505182703 56 360 4.0 11.0 0.00 0.00 0.00 54 1027.4
20260505181803 55 360 3.0 10.0 0.00 0.00 0.00 56 1027.4
20260505180903 55 360 3.0 8.0 0.00 0.00 0.00 56 1027.4
20260505180003 54 360 2.0 5.0 0.00 0.00 0.00 57 1027.4
20260505175403 54 360 2.0 8.0 0.00 0.00 0.00 59 1027.4
20260505174524 54 360 3.0 12.0 0.00 0.00 0.00 58 1027.4
20260505173603 53 360 3.0 15.0 0.00 0.00 0.00 59 1027.4
20260505172703 53 360 2.0 8.0 0.00 0.00 0.00 60 1027.4
20260505171803 53 360 3.0 8.0 0.00 0.00 0.00 61 1027.4
20260505170924 52 360 3.0 11.0 0.00 0.00 0.00 61 1027.4